This demonstration page uses our WeatherBlox Daily Observations layout. Learn more.

Left ArrowRight Arrow

39.08367, -84.50855

Hourly Observations for April 13, 2015

Temp ( °F °C ) Dew Point ( °F °C ) Humidity (%) Winds ( mph kmh ) Pressure ( in mb ) Visibility ( mi km ) Precip ( " mm )
12:53 am 00:53 Clear 52 11.1 45 7.2 77 77 N N/A 30.08 1019 10 16 N/A
1:53 am 01:53 Clear 50 10 44 6.7 80 80 N N/A 30.07 1018 10 16 N/A
2:53 am 02:53 Clear 49 9.4 45 7.2 86 86 SSW 5 7 30.07 1018 10 16 N/A
3:53 am 03:53 Clear 49 9.4 45 7.2 86 86 SSW 3 6 30.08 1019 10 16 N/A
4:53 am 04:53 Clear 49 9.4 45 7.2 86 86 SW 3 6 30.09 1019 10 16 N/A
5:53 am 05:53 Clear 50 10 45 7.2 83 83 N N/A 30.09 1019 10 16 N/A
6:53 am 06:53 Mostly Clear 50 10 46 7.8 86 86 N N/A 30.11 1020 10 16 N/A
7:53 am 07:53 Partly Cloudy 50 10 47 8.3 89 89 N N/A 30.14 1021 10 16 N/A
8:53 am 08:53 Partly Cloudy 56 13.3 50 10 81 81 N N/A 30.14 1021 10 16 N/A
9:53 am 09:53 Sunny 65 18.3 52 11.1 63 63 S 13 20 30.11 1020 10 16 N/A
10:53 am 10:53 Mostly Cloudy 69 20.6 55 12.8 61 61 SSW 16 26 30.11 1020 10 16 N/A
11:53 am 11:53 Partly Cloudy 73 22.8 57 13.9 57 57 SW 15 24 30.09 1019 10 16 N/A
12:53 pm 12:53 Sunny 74 23.3 58 14.4 57 57 SSW 22 35 30.08 1019 10 16 N/A
1:53 pm 13:53 Partly Cloudy 76 24.4 59 15 56 56 SW 12 19 30.05 1018 10 16 N/A
2:53 pm 14:53 Partly Cloudy 77 25 59 15 54 54 SSW 13 20 30.03 1017 10 16 N/A
3:53 pm 15:53 Cloudy 77 25 59 15 54 54 SW 10 17 30.01 1016 10 16 N/A
4:53 pm 16:53 Mostly Sunny 79 26.1 61 16.1 54 54 SW 10 17 29.99 1016 10 16 N/A
5:53 pm 17:53 Mostly Cloudy 76 24.4 59 15 56 56 SW 15 24 29.99 1016 10 16 N/A
6:53 pm 18:53 Mostly Cloudy 71 21.7 60 15.6 68 68 WNW 13 20 30.02 1017 10 16 N/A
7:53 pm 19:53 Mostly Cloudy 67 19.4 62 16.7 84 84 N 12 19 30.05 1018 10 16 N/A
8:03 pm 20:03 Mostly Cloudy 66 19 63 17 88 88 N 16 26 30.03 1017 10 16 N/A
8:53 pm 20:53 Mostly Cloudy 65 18.3 58 14.4 78 78 N 10 17 30.07 1018 10 16 N/A
9:53 pm 21:53 Cloudy 63 17.2 56 13.3 78 78 N 8 13 30.11 1020 10 16 N/A
10:53 pm 22:53 Cloudy 63 17.2 57 13.9 81 81 NE 5 7 30.11 1020 10 16 N/A
11:53 pm 23:53 Cloudy 63 17.2 57 13.9 81 81 NE 5 7 30.11 1020 10 16 N/A

Powered by AerisWeather